Regional Weather Roundup
Issued by NWS

Home | Current Version | Previous Version | Graphics & Text | Print | Product List | Glossary On
Versions: 1 2 3 4 5 6 7 8 9 10 11 12 13 14 15 16 17 18 19 20 21 22 23 24 25 26 27
000
ASUS45 KCYS 280910
RWRWY

WYOMING REGIONAL WEATHER ROUNDUP
NATIONAL WEATHER SERVICE CHEYENNE WY
300 AM MDT THU JUL 28 2016

NOTE:  "FAIR" INDICATES FEW OR NO CLOUDS BELOW 12,000 FEET
WITH NO SIGNIFICANT WEATHER AND/OR OBSTRUCTIONS TO VISIBILITY.

WYZ001-281000-
YELLOWSTONE NATIONAL PARK

CITY           SKY/WX    TMP DP  RH WIND       PRES   REMARKS
LK YELLOWSTONE   N/A     48  46  93 CALM      30.41F
W YELLOWSTONE  NOT AVBL

$$
WYZ002>013-054>058-071-098>099-281000-
NORTHERN WYOMING

CITY           SKY/WX    TMP DP  RH WIND       PRES   REMARKS
JACKSON        FAIR      59  37  44 NE13      30.25S
CODY           FAIR      61  52  72 NW5       30.27R
GREYBULL       RAIN      64  58  80 NW35G60   30.22R
WORLAND        FAIR      67  55  65 NW5       30.15R
SHERIDAN       CLOUDY    63  56  78 S8        30.15F
BUFFALO        FAIR      63  53  70 NW9       30.21F
GILLETTE       FAIR      60  57  89 S12       30.16F
HULETT         FAIR      63  55  77 CALM      30.16S
NEWCASTLE      TSTM      55  54  94 CALM      30.30R

$$
WYZ014>020-022>026-101>103-281000-
CENTRAL WYOMING

CITY           SKY/WX    TMP DP  RH WIND       PRES   REMARKS
BIG PINEY      FAIR      51  29  42 E5        30.28S
PINEDALE       FAIR      52  36  54 W7        30.30R
DUBOIS         FAIR      55  32  41 CALM      30.31S HAZE
LANDER         FAIR      65  44  46 W6        30.19S
RIVERTON       FAIR      66  52  60 E7        30.19F
CASPER         FAIR      59  53  80 NE6       30.17F
DOUGLAS          N/A    N/A N/A N/A MISG      30.18S

$$
WYZ021-027>030-104>119-281000-
SOUTHERN WYOMING

CITY           SKY/WX    TMP DP  RH WIND       PRES   REMARKS
EVANSTON       FAIR      62  25  24 S6        30.29S
KEMMERER         N/A     54  28  37 N12       30.30S
FORT BRIDGER   FAIR      64  22  20 SW6       30.30S
ROCK SPRINGS   FAIR      68  21  16 CALM      30.25S
DIXON          FAIR      53  31  41 CALM      30.26S
RAWLINS        FAIR      51  42  71 NW3       30.22S
SARATOGA       FAIR      54  28  37 SE7       30.24S
LARAMIE        FAIR      58  54  86 S18       30.25F
CHEYENNE       FAIR      59  55  87 S9        30.22F
TORRINGTON     FAIR      60  60 100 NE8       30.12F
PINE BLUFFS    FAIR      61  59  94 SE8       30.17F

$$




USA.gov is the U.S. government's official web portal to all federal, state and local government web resources and services.